Location: Ferchesar
(52.6477°N, 12.4298°E)
Time: 13:45:57
(UTC+01:00)

Altair - Pass Details

Date: 10 December 2021
Orbit: 1501 x 1683 km, 47.2° (Epoch: 27 January)

Event Time Altitude Azimuth Distance (km) Brightness Sun altitude
Rises 20:01:37 0° 284° (WNW) 4,705 11.0 -35.9°
Reaches altitude 10° 20:05:04 10° 276° (W) 3,699 10.3 -36.4°
Maximum altitude 20:12:57 33° 217° (SW) 2,324 8.5 -37.6°
Enters shadow 20:15:05 30° 193° (SSW) 2,445 8.5 -37.9°
